Regional Weather Roundup
Issued by NWS

Home | Current Version | Previous Version | Text Only | Print | Product List | Glossary Off
Versions: 1 2 3 4 5 6 7 8 9 10 11 12 13 14 15 16 17 18 19 20 21 22 23 24 25 26 27 28 29 30 31 32 33 34 35 36 37 38 39 40 41 42 43 44 45 46 47 48 49 50

000
ASUS45 KSLC 010210
RWRUT

UTAH REGIONAL WEATHER ROUNDUP
NATIONAL WEATHER SERVICE SALT LAKE CITY UT
800 PM MDT SUN AUG 31 2014

UTZ001>011-023>025-010300-

NORTHERN UTAH

CITY           SKY/WX    TMP DP  RH WIND       PRES   REMARKS
HILL AFB       CLEAR     70  29  21 E2        30.02F
LOGAN          CLEAR     69  40  34 S7        29.99F
OGDEN          CLEAR     70  29  21 E5        29.99F
PROVO AIRPORT  CLEAR     70  46  43 NW7       30.01S
SALT LAKE CITY CLEAR     70  32  24 N7        29.99S
VERNAL         CLEAR     69  35  28 NE9       29.97R
WENDOVER       CLEAR     75  36  23 E7        29.96S
HEBER CITY     CLEAR     63  36  36 N8        30.05S
WEST JORDAN    CLEAR     68  43  40 N3        30.02S

$$

UTZ012>022-026-027-010300-

SOUTHERN UTAH

CITY           SKY/WX    TMP DP  RH WIND       PRES   REMARKS
BRYCE CANYON   CLEAR     65  33  30 SW8       30.15R
CEDAR CITY     CLEAR     77  27  15 W5        29.99R
MILFORD        CLEAR     78  35  21 N10       29.95S
MOAB/CYNLANDS  CLEAR     82  27  13 NW18      29.87R
PRICE          CLEAR     70  34  26 N13       30.04R
ST GEORGE      CLEAR     93  34  12 W9        29.80R

$$

REGIONAL REPORTS     COLORADO/ARIZONA

CITY           SKY/WX    TMP DP  RH WIND       PRES   REMARKS
CRAIG, CO      MOCLDY    60  47  61 W5        30.03S
GRAND JUNCTION CLEAR     74  39  28 NW6       29.87R
RIFLE          PTCLDY    72  40  31 W5        29.94R
MONTROSE       PTCLDY    75  36  24 CALM      29.97R
CORTEZ         CLEAR     76  36  23 SW6       30.01R
PAGE, AZ       CLEAR     91  29  11 W9G20     29.87R
GRAND CANYON   CLEAR     75  36  24 SW9       30.13S
KINGMAN        CLEAR     89  34  14 SW9       29.88S
FLAGSTAFF      CLEAR     70  40  33 W7        30.19S

$$

REGIONAL REPORTS    NEVADA/IDAHO/WYOMING

CITY           SKY/WX    TMP DP  RH WIND       PRES   REMARKS
LAS VEGAS, NV  PTCLDY   101  30   8 S9        29.68S HX  94
ELY            CLEAR     73  30  20 N8        30.06S
ELKO           CLEAR     74  32  21 W7        30.00F
POCATELLO, ID  PTCLDY    65  30  27 SW13      30.01S
BURLEY         CLEAR     63  41  44 W7        29.98F
EVANSTON, WY   CLEAR     54  27  35 W9        30.14S
ROCK SPRINGS   CLEAR     57  33  40 NW10      30.09R

$$



USA.gov is the U.S. government's official web portal to all federal, state and local government web resources and services.